Weather History for Pierre, SD

Change the Weather History Date:

Monday, October 28, 2013

  Actual Average Record
Temperature  
Mean Temperature 32 °F 43 °F  
Max Temperature 36 °F 55 °F 87 °F (1937)
Min Temperature 27 °F 32 °F 15 °F (1952)
Degree Days  
Heating Degree Days 33 22  
Month to date heating degree days 522 442  
Since 1 July heating degree days 587 613  
Cooling Degree Days 0 0  
Month to date cooling degree days 0 2  
Year to date cooling degree days 853 865  
Moisture  
Dew Point 25 °F    
Average Humidity 78    
Maximum Humidity 92    
Minimum Humidity 64    
Precipitation  
Precipitation 0.08 in 0.04 in 1.60 in (1991)
Month to date precipitation 4.66 1.54  
Year to date precipitation 22.74 18.59  
Snow  
Snow 0.00 in 0.10 in 2.00 in (1971)
Month to date snowfall T 0.8  
Since 1 July snowfall T 0.8  
Snow Depth 0.00 in    
Sea Level Pressure  
Sea Level Pressure 30.35 in    
Wind  
Wind Speed 18 mph (ENE)    
Max Wind Speed 24 mph    
Max Gust Speed 30 mph    
Visibility 8 miles    
Events Fog , Snow    
T = Trace of Precipitation, MM = Missing Value Source: NWS Daily Summary

Daily Weather History Graph

Daily Weather History Graph

Search for Another Location

Airport:

Trip Planner

Search our weather history database for the weather conditions in past years. The results will help you decide how hot, cold, wet, or windy it might be!

Date:

Astronomy

Oct. 28, 2013 Rise Set
Actual Time 8:13 AM CDT 6:35 PM CDT
Civil Twilight 7:43 AM CDT 7:05 PM CDT
Nautical Twilight 7:09 AM CDT 7:39 PM CDT
Astronomical Twilight 6:35 AM CDT 8:13 PM CDT
Moon 1:54 AM CDT (10/28) 3:30 PM CDT (10/28)
Length of Visible Light 11h 22m
Length of Day
10h 22m
Waning Crescent, 34% of the Moon is Illuminated
Oct 28
Waning Crescent
Nov 3
New
Nov 9
First Quarter
Nov 17
Full
Nov 25
Last Quarter

Hourly Weather History & Observations

Time (CDT) Temp. Windchill Dew Point Humidity Pressure Visibility Wind Dir Wind Speed Gust Speed Precip Events Conditions
12:53 AM 32.0 °F 22.5 °F 26.1 °F 79% 30.22 in 10.0 mi NE 12.7 mph - N/A   Clear
1:53 AM 30.9 °F 19.4 °F 25.0 °F 79% 30.25 in 10.0 mi NE 17.3 mph - N/A   Partly Cloudy
2:53 AM 28.9 °F 16.5 °F 24.1 °F 82% 30.27 in 10.0 mi NNE 18.4 mph - N/A   Clear
3:53 AM 28.0 °F 14.9 °F 24.1 °F 85% 30.27 in 10.0 mi NE 19.6 mph 24.2 mph N/A   Clear
4:53 AM 28.0 °F 14.9 °F 23.0 °F 81% 30.30 in 10.0 mi NE 19.6 mph 26.5 mph N/A   Mostly Cloudy
5:53 AM 28.9 °F 16.5 °F 24.1 °F 82% 30.32 in 10.0 mi NE 18.4 mph - N/A   Overcast
6:51 AM 28.4 °F 20.4 °F 24.8 °F 86% 30.33 in 10.0 mi NE 8.1 mph - N/A   Overcast
6:53 AM 28.9 °F 18.6 °F 24.1 °F 82% 30.38 in 10.0 mi ENE 12.7 mph 19.6 mph N/A   Overcast
7:49 AM 28.4 °F 17.0 °F 24.8 °F 86% 30.32 in 10.0 mi NE 15.0 mph - N/A   Overcast
7:53 AM 28.0 °F 15.7 °F 24.1 °F 85% 30.38 in 10.0 mi NE 17.3 mph - N/A   Overcast
8:53 AM 27.0 °F 13.5 °F 23.0 °F 85% 30.39 in 6.0 mi NE 19.6 mph - 0.00 in Snow Light Snow
9:53 AM 28.9 °F 15.4 °F 24.1 °F 82% 30.41 in 10.0 mi NE 21.9 mph - 0.00 in   Partly Cloudy
10:53 AM 30.9 °F 18.1 °F 25.0 °F 79% 30.42 in 10.0 mi NE 21.9 mph - N/A   Clear
11:45 AM 32.0 °F 21.6 °F 24.8 °F 75% 30.38 in 10.0 mi East 15.0 mph - N/A   Mostly Cloudy
11:53 AM 33.1 °F 22.6 °F 25.0 °F 72% 30.43 in 10.0 mi ENE 16.1 mph - N/A   Overcast
12:53 PM 34.0 °F 23.8 °F 26.1 °F 73% 30.43 in 10.0 mi East 16.1 mph - N/A   Overcast
1:20 PM 33.8 °F 23.2 °F 26.6 °F 75% 30.34 in 10.0 mi ENE 17.3 mph - N/A   Overcast
1:53 PM 35.1 °F 25.2 °F 26.1 °F 70% 30.39 in 10.0 mi ENE 16.1 mph - N/A   Mostly Cloudy
2:53 PM 35.1 °F 23.8 °F 26.1 °F 70% 30.37 in 10.0 mi ENE 20.7 mph - N/A   Overcast
3:53 PM 35.1 °F 24.8 °F 26.1 °F 70% 30.38 in 10.0 mi NE 17.3 mph 24.2 mph N/A   Overcast
4:53 PM 35.1 °F 25.2 °F 26.1 °F 70% 30.37 in 10.0 mi ENE 16.1 mph - N/A   Mostly Cloudy
5:53 PM 34.0 °F 23.4 °F 26.1 °F 73% 30.35 in 10.0 mi ENE 17.3 mph - N/A   Overcast
6:53 PM 34.0 °F 22.7 °F 26.1 °F 73% 30.34 in 10.0 mi ENE 19.6 mph 29.9 mph N/A   Overcast
7:53 PM 35.1 °F 24.5 °F 25.0 °F 67% 30.35 in 10.0 mi ENE 18.4 mph 25.3 mph N/A   Overcast
8:53 PM 34.0 °F 22.4 °F 24.1 °F 67% 30.36 in 10.0 mi ENE 20.7 mph 25.3 mph N/A   Overcast
9:49 PM 32.0 °F 22.5 °F 24.8 °F 75% 30.31 in 2.5 mi ENE 12.7 mph - 0.00 in Snow Light Snow
9:53 PM 30.9 °F 20.7 °F 26.1 °F 82% 30.37 in 1.2 mi ENE 13.8 mph - 0.00 in Snow Light Snow
10:01 PM 30.2 °F 19.8 °F 26.6 °F 86% 30.31 in 0.5 mi ENE 13.8 mph - 0.01 in Fog , Snow Snow
10:14 PM 28.4 °F 18.0 °F 26.6 °F 93% 30.33 in 0.5 mi ENE 12.7 mph - 0.03 in Fog , Snow Snow
10:53 PM 28.9 °F 18.2 °F 27.0 °F 92% 30.39 in 0.5 mi ENE 13.8 mph - 0.07 in Fog , Snow Snow
11:06 PM 28.4 °F 18.0 °F 26.6 °F 93% 30.32 in 1.8 mi ENE 12.7 mph - 0.00 in Snow Light Snow
11:11 PM 28.4 °F 18.0 °F 26.6 °F 93% 30.32 in 3.0 mi ENE 12.7 mph - 0.00 in Snow Light Snow
11:23 PM 28.4 °F 18.0 °F 26.6 °F 93% 30.32 in 7.0 mi ENE 12.7 mph - 0.01 in   Overcast
11:36 PM 28.4 °F 18.0 °F 26.6 °F 93% 30.32 in 7.0 mi ENE 12.7 mph - 0.01 in   Overcast
11:53 PM 28.9 °F 18.6 °F 27.0 °F 92% 30.38 in 9.0 mi ENE 12.7 mph - 0.01 in   Overcast